Retour au catalogue

HISPASAT 36W-1

ActifCommunicationsGEO
NORAD 41942·PAYLOAD·🇪🇸 Spain

Lancé Jan 28, 2017 depuis Guiana Space Centre

Loading…

TLE

FraisSource: Space-Track

Époque: Sep 14, 2026, 22:11 UTC

1 41942U 17006A   26257.92442742 -.00000252  00000-0  00000-0 0  9990
2 41942   0.0176 291.4046 0000990 240.7345 118.5629  1.00272190 35142

Suivez HISPASAT 36W-1 en temps réel avec AllMySat

Download on the App Store